This is the latest recevied weather packets stored in our database for station/object N3LF. If no packets are shown the sender has not sent any weather packets the latest 10 day(s).
| Time | Temp. | Humidity | Pressure | Rain* | Wind** | Luminosity | Snow |
|---|---|---|---|---|---|---|---|
| 1777897873 | 15.56° C | 75% | 1015.9 hPa | 0 mm | - | 153 W/m² | - |
| 1777897569 | 15° C | 76% | 1016.2 hPa | 0 mm | - | 139 W/m² | - |
| 1777897265 | 14.44° C | 78% | 1016 hPa | 0 mm | - | 122 W/m² | - |
| 1777896961 | 14.44° C | 78% | 1016 hPa | 0 mm | - | 99 W/m² | - |
| 1777896658 | 14.44° C | 76% | 1016.2 hPa | 0 mm | - | 85 W/m² | - |
| 1777896355 | 14.44° C | 77% | 1016 hPa | 0 mm | - | 78 W/m² | - |
| 1777896053 | 13.89° C | 77% | 1016.2 hPa | 0 mm | - | 74 W/m² | - |
| 1777895750 | 13.89° C | 79% | 1016.1 hPa | 0 mm | - | 68 W/m² | - |
| 1777895447 | 13.89° C | 79% | 1015.9 hPa | 0 mm | - | 56 W/m² | - |
| 1777895145 | 13.89° C | 77% | 1016 hPa | 0 mm | - | 48 W/m² | - |
| 1777894842 | 13.33° C | 75% | 1016 hPa | 0 mm | - | 38 W/m² | - |
| 1777894539 | 13.33° C | 76% | 1016 hPa | 0 mm | - | 33 W/m² | - |
| 1777894237 | 13.33° C | 77% | 1015.8 hPa | 0 mm | - | 27 W/m² | - |
| 1777893933 | 13.33° C | 78% | 1015.9 hPa | 0 mm | - | 21 W/m² | - |
| 1777893630 | 13.89° C | 76% | 1015.7 hPa | 0 mm | - | 17 W/m² | - |
| 1777893326 | 13.89° C | 74% | 1015.8 hPa | 0 mm | - | 13 W/m² | - |
| 1777893022 | 13.89° C | 74% | 1015.6 hPa | 0 mm | - | 9 W/m² | - |
| 1777892720 | 13.89° C | 74% | 1015.6 hPa | 0 mm | - | 6 W/m² | - |
| 1777892421 | 13.33° C | 74% | 1015.4 hPa | 0 mm | - | 4 W/m² | - |
| 1777892117 | 13.33° C | 74% | 1015.6 hPa | 0 mm | - | 3 W/m² | - |
| 1777891814 | 13.33° C | 75% | 1015.4 hPa | 0 mm | - | 1 W/m² | - |
| 1777891511 | 13.33° C | 75% | 1015.3 hPa | 0 mm | - | 1 W/m² | - |
| 1777891208 | 13.33° C | 78% | 1015.3 hPa | 0 mm | - | 0 W/m² | - |
| 1777890902 | 13.33° C | 74% | 1015.5 hPa | 0 mm | - | 0 W/m² | - |
| 1777890597 | 13.33° C | 72% | 1015.5 hPa | 0 mm | - | 0 W/m² | - |
* Rain latest hour (hover to see other rain measurements)
** Current wind speed in m/s (hover to see current wind gust speed)